Crisp Cnty-Cordele AP, Cordel, GA

6:13 AM EDT on June 28, 2017 (GMT -0400)
Crisp County-Cordele

Weather History for KCKF - May, 2014

Change the Weather History Date:

Tuesday, May 13, 2014

  Actual Average (KFZG) Record (KFZG)
Temperature  
Mean Temperature 77 °F -  
Max Temperature 89 °F 83 °F 89 °F (2014)
Min Temperature 65 °F 61 °F 64 °F (2014)
Cooling Degree Days 12    
Growing Degree Days 27 (Base 50)    
Moisture  
Dew Point 64 °F    
Average Humidity 64    
Maximum Humidity 92    
Minimum Humidity 36    
Precipitation  
Precipitation 0.00 in - - ()
Sea Level Pressure  
Sea Level Pressure 30.12 in    
Wind  
Wind Speed 4 mph (SE)    
Max Wind Speed 10 mph    
Max Gust Speed -    
Visibility 9 miles    
Events      
Averages and records for this station are not official NWS values.
T = Trace of Precipitation, MM = Missing Value Source: NWS Daily Summary

Daily Weather History Graph

Daily Weather History Graph

Search for Another Location

Airport or City:

Trip Planner

Search our weather history database for the weather conditions in past years. The results will help you decide how hot, cold, wet, or windy it might be!

Date:

Astronomy

May. 13, 2014 Rise Set
Actual Time 6:39 AM EDT 8:24 PM EDT
Civil Twilight 6:12 AM EDT 8:50 PM EDT
Nautical Twilight 5:40 AM EDT 9:23 PM EDT
Astronomical Twilight 5:06 AM EDT 9:57 PM EDT
Moon 7:28 PM EDT (5/13) 5:49 AM EDT (5/13)
Length of Visible Light 14h 38m
Length of Day
13h 44m
Waxing Gibbous, 98% of the Moon is Illuminated
May 13
Waxing Gibbous
May 14
Full
May 21
Last Quarter
May 28
New
Jun 5
First Quarter

Hourly Weather History & Observations

Time (EDT) Temp. Heat Index Dew Point Humidity Pressure Visibility Wind Dir Wind Speed Gust Speed Precip Events Conditions
12:15 AM 71.2 °F - 66.6 °F 85% 30.13 in 10.0 mi SE 4.6 mph - N/A   Clear
12:35 AM 73.8 °F - 66.2 °F 77% 30.13 in 10.0 mi SSE 5.8 mph - N/A   Clear
12:55 AM 75.6 °F - 66.0 °F 72% 30.13 in 10.0 mi SSE 5.8 mph - N/A   Clear
1:15 AM 75.2 °F - 65.8 °F 73% 30.12 in 10.0 mi SSE 6.9 mph - N/A   Clear
1:35 AM 75.2 °F - 65.5 °F 72% 30.12 in 10.0 mi SSE 5.8 mph - N/A   Clear
2:15 AM 73.6 °F - 65.7 °F 76% 30.12 in 10.0 mi SSE 4.6 mph - N/A   Clear
2:35 AM 73.4 °F - 65.3 °F 76% 30.11 in 10.0 mi SSE 4.6 mph - N/A   Clear
2:55 AM 72.7 °F - 65.1 °F 77% 30.11 in 10.0 mi SE 4.6 mph - N/A   Clear
3:15 AM 72.5 °F - 65.1 °F 78% 30.12 in 10.0 mi SSE 4.6 mph - N/A   Clear
3:35 AM 72.1 °F - 64.8 °F 78% 30.12 in 10.0 mi SSE 5.8 mph - N/A   Clear
3:55 AM 71.6 °F - 64.9 °F 79% 30.12 in 10.0 mi SSE 4.6 mph - N/A   Clear
4:15 AM 71.1 °F - 64.9 °F 81% 30.12 in 10.0 mi SE 3.5 mph - N/A   Clear
4:35 AM 70.7 °F - 65.3 °F 83% 30.13 in 10.0 mi SSE 3.5 mph - N/A   Clear
4:55 AM 69.8 °F - 65.3 °F 86% 30.13 in 7.0 mi Calm Calm - N/A   Clear
5:15 AM 68.4 °F - 64.8 °F 88% 30.13 in 7.0 mi Calm Calm - N/A   Clear
5:35 AM 68.0 °F - 64.4 °F 88% 30.13 in 7.0 mi Calm Calm - N/A   Clear
5:55 AM 68.2 °F - 64.8 °F 89% 30.13 in 2.5 mi Calm Calm - N/A   Clear
6:15 AM 66.4 °F - 63.7 °F 91% 30.13 in 10.0 mi Calm Calm - N/A   Clear
6:35 AM 66.4 °F - 63.9 °F 92% 30.14 in 10.0 mi Calm Calm - N/A   Clear
6:55 AM 65.8 °F - 63.5 °F 92% 30.15 in 2.0 mi Calm Calm - N/A   Clear
7:15 AM 66.6 °F - 63.9 °F 91% 30.16 in 5.0 mi Calm Calm - N/A   Clear
7:35 AM 66.9 °F - 64.6 °F 92% 30.16 in 1.2 mi Calm Calm - N/A   Mist
7:55 AM 70.0 °F - 66.7 °F 89% 30.17 in 1.5 mi Calm Calm - N/A   Mist
8:15 AM 72.1 °F - 67.8 °F 86% 30.17 in 10.0 mi SSE 4.6 mph - N/A   Scattered Clouds
9:15 AM 76.1 °F - 67.8 °F 75% 30.18 in 10.0 mi South 8.1 mph - N/A   Scattered Clouds
9:35 AM 76.8 °F - 68.0 °F 74% 30.18 in 10.0 mi South 10.4 mph - N/A   Scattered Clouds
10:15 AM 78.8 °F - 67.3 °F 68% 30.17 in 10.0 mi South 5.8 mph - N/A   Clear
12:35 PM 84.0 °F 85.2 °F 63.5 °F 50% 30.17 in 10.0 mi SSW 6.9 mph - N/A   Mostly Cloudy
12:55 PM 84.4 °F 85.2 °F 62.8 °F 48% 30.16 in 10.0 mi SSW 3.5 mph - N/A   Scattered Clouds
1:15 PM 84.0 °F 84.4 °F 61.3 °F 46% 30.16 in 10.0 mi SSW 4.6 mph - N/A   Scattered Clouds
1:35 PM 85.1 °F 85.4 °F 61.7 °F 45% 30.16 in 10.0 mi East 4.6 mph - N/A   Mostly Cloudy
1:55 PM 85.8 °F 86.1 °F 61.5 °F 44% 30.15 in 10.0 mi SE 4.6 mph - N/A   Mostly Cloudy
2:15 PM 86.5 °F 86.3 °F 60.4 °F 41% 30.14 in 10.0 mi SSW 5.8 mph - N/A   Scattered Clouds
2:35 PM 86.7 °F 86.1 °F 59.4 °F 39% 30.14 in 10.0 mi SE 5.8 mph - N/A   Scattered Clouds
2:55 PM 88.2 °F 87.3 °F 59.0 °F 37% 30.13 in 10.0 mi South 9.2 mph - N/A   Scattered Clouds
3:15 PM 87.3 °F 87.2 °F 60.6 °F 41% 30.13 in 10.0 mi SE 6.9 mph - N/A   Scattered Clouds
3:35 PM 88.0 °F 87.6 °F 60.1 °F 39% 30.12 in 10.0 mi ESE 5.8 mph - N/A   Scattered Clouds
3:55 PM 86.9 °F 86.3 °F 59.2 °F 39% 30.11 in 10.0 mi South 5.8 mph - N/A   Scattered Clouds
4:15 PM 87.8 °F 86.9 °F 58.5 °F 37% 30.10 in 10.0 mi Calm Calm - N/A   Scattered Clouds
4:35 PM 88.2 °F 87.6 °F 59.5 °F 38% 30.09 in 10.0 mi SSW 4.6 mph - N/A   Scattered Clouds
4:55 PM 89.1 °F 88.8 °F 60.4 °F 38% 30.09 in 10.0 mi East 6.9 mph - N/A   Scattered Clouds
5:15 PM 86.0 °F 85.4 °F 59.2 °F 40% 30.09 in 10.0 mi SE 3.5 mph - N/A   Scattered Clouds
5:35 PM 88.5 °F 87.5 °F 58.6 °F 36% 30.08 in 10.0 mi SSE 6.9 mph - N/A   Clear
5:55 PM 88.5 °F 88.1 °F 60.1 °F 38% 30.08 in 10.0 mi East 3.5 mph - N/A   Scattered Clouds
6:15 PM 87.3 °F 87.0 °F 59.9 °F 40% 30.07 in 10.0 mi ESE 4.6 mph - N/A   Scattered Clouds
6:35 PM 88.2 °F 87.8 °F 60.6 °F 39% 30.07 in 10.0 mi ENE 3.5 mph - N/A   Clear
6:55 PM 87.6 °F 87.7 °F 61.5 °F 41% 30.07 in 10.0 mi East 5.8 mph - N/A   Scattered Clouds
7:15 PM 86.4 °F 87.0 °F 62.4 °F 45% 30.07 in 10.0 mi East 5.8 mph - N/A   Scattered Clouds
7:35 PM 84.7 °F 85.9 °F 63.9 °F 49% 30.07 in 10.0 mi East 3.5 mph - N/A   Clear
7:55 PM 82.8 °F 84.7 °F 65.8 °F 56% 30.07 in 10.0 mi Calm Calm - N/A   Clear
8:15 PM 80.6 °F 82.8 °F 66.6 °F 62% 30.07 in 10.0 mi Calm Calm - N/A   Clear
8:35 PM 78.4 °F - 67.6 °F 69% 30.07 in 10.0 mi ENE 3.5 mph - N/A   Scattered Clouds
8:55 PM 77.4 °F - 67.1 °F 71% 30.07 in 10.0 mi Calm Calm - N/A   Clear
9:15 PM 75.9 °F - 67.3 °F 74% 30.08 in 10.0 mi Calm Calm - N/A   Scattered Clouds
9:35 PM 75.6 °F - 66.9 °F 74% 30.08 in 10.0 mi ENE 3.5 mph - N/A   Mostly Cloudy
9:55 PM 75.6 °F - 66.9 °F 74% 30.09 in 10.0 mi Calm Calm - N/A   Mostly Cloudy
10:15 PM 76.3 °F - 66.9 °F 73% 30.10 in 10.0 mi Calm Calm - N/A   Scattered Clouds
10:55 PM 77.9 °F - 65.3 °F 65% 30.12 in 10.0 mi SE 5.8 mph - N/A   Clear
11:15 PM 77.5 °F - 65.3 °F 66% 30.13 in 10.0 mi SE 8.1 mph - N/A   Clear
11:35 PM 77.9 °F - 64.6 °F 63% 30.13 in 10.0 mi SE 9.2 mph - N/A   Clear
11:55 PM 77.2 °F - 64.4 °F 65% 30.13 in 10.0 mi SE 8.1 mph - N/A   Clear